www.pogodaiklimat.ru

Погода и климат >> Архив погоды >> Австралия >> Квинсленд >> Куктаун


ПОГОДА в Куктауне

  • Прогноз погоды в Куктауне
  • Монитор погоды в Куктауне

АРХИВ ПОГОДЫ в Куктауне

Время (UTC), дата Ветер
(напр.,м/с)
 
Видим.   Явления Облачность Т
(С)
Тd
(С)
f
(%)
Тe
(С)
Тes
(С)
Комфортность P
(гПа)
Po
(гПа)
Тmin
(С)
Tmax
(С)
R
(мм)
R24
(мм)
S
(см)
20 8.02 З 1 6000 м туман местами 10/10 600 м
[]
+25.3 +24.4 95 +35 +35 очень
душно
1000.1 999.5
21 8.02 З 2 н/о н/о +25.2 +24.5 96 +35 +35 очень
душно
1000.7 1000.1
23 8.02 З 2 н/о туман местами 10/10 100 м
[]
+25.6 +24.7 95 +36 +36 очень
душно
1001.9 1001.3
00 9.02 З 2 н/о н/о +26.7 +25.3 92 +39 +39 очень
душно
1002.1 1001.5
02 9.02 ЮЗ 3 н/о в посл. час дождь {туман} 10/10 300 м
[]
+30.1 +25.2 75 +44 +44 опасность
перегрева
1001.3 1000.7 +25.1
03 9.02 З 1 н/о н/о +31.1 +25.4 72 +45 +45 опасность
перегрева
1000.7 1000.1
05 9.02 В 3 н/о {туман} 3/3 1000 м
[]
+30.5 +26.0 77 +46 +53 опасность
перегрева
999.7 999.1
06 9.02 С 3 н/о н/о +28.9 +25.5 82 +43 +43 опасность
перегрева
999.6 999.0
08 9.02 Ю 1 6000 м туман местами 10/10 1500 м
[]
+27.0 +25.6 92 +40 +40 очень
душно
1001.2 1000.6
09 9.02 Ю 3 н/о н/о +26.3 +25.3 94 +38 +38 очень
душно
1002.7 1002.1
11 9.02 З 2 5000 м туман местами 10/10 1000 м
[]
+25.7 +25.0 96 +37 +37 очень
душно
1004.9 1004.3
12 9.02 З 3 н/о н/о +25.4 +24.5 95 +36 +36 очень
душно
1005.9 1005.3
14 9.02 СЗ 3 н/о в посл. час дождь {туман} 10/0
[]
+24.4 +23.5 95 +33 +33 очень
душно
1005.0 1004.4 +31.9
15 9.02 З 3 н/о н/о +24.1 +23.1 94 +32 +32 очень
душно
1004.2 1003.6
17 9.02 СЗ 2 н/о {туман} 4/0
[]
+24.1 +22.9 93 +32 +32 очень
душно
1003.7 1003.1
18 9.02 З 2 н/о н/о +23.8 +23.0 95 +32 +32 очень
душно
1003.9 1003.3
20 9.02 штиль 0 н/о 3/3 600 м
[]
+23.6 +22.8 95 +31 +31 очень
душно
1005.1 1004.5
21 9.02 З 4 н/о н/о +24.7 +23.3 92 +33 +33 очень
душно
1006.2 1005.6
23 9.02 З 4 н/о 5/5 600 м
[]
+28.0 +24.4 81 +39 +43 очень
душно
1007.6 1007.0
00 10.02 СЗ 5 н/о н/о +28.5 +24.3 78 +40 +40 очень
душно
1007.6 1007.0
02 10.02 З 4 н/о {туман} н/о +31.9 +24.2 64 +44 +44 опасность
перегрева
1005.6 1005.0 +23.6
03 10.02 З 4 н/о н/о +33.0 +25.0 63 +47 +47 опасность
перегрева
1004.8 1004.2
05 10.02 З 5 н/о {туман} 1/1 1500 м
[]
+35.1 +23.4 51 +46 +53 опасность
перегрева
1003.5 1002.9
06 10.02 З 5 н/о н/о +35.6 +23.2 49 +46 +46 опасность
перегрева
1002.9 1002.3
08 10.02 СВ 4 н/о 3/0 2000 м
[]
+30.9 +24.1 67 +43 +43 опасность
перегрева
1003.7 1003.1
09 10.02 СЗ 2 н/о н/о +30.1 +25.4 76 +44 +44 опасность
перегрева
1004.2 1003.6
11 10.02 штиль 0 н/о н/о +27.3 +25.5 90 +40 +40 очень
душно
1005.7 1005.1
12 10.02 штиль 0 н/о н/о +27.3 +25.5 90 +40 +40 очень
душно
1006.4 1005.8
14 10.02 З 2 н/о н/о +27.0 +23.9 83 +37 +37 очень
душно
1006.7 1006.1 +36.0
15 10.02 З 1 н/о н/о +26.7 +24.4 87 +37 +37 очень
душно
1006.6 1006.0
17 10.02 З 2 н/о 10/0
[]
+28.5 +23.6 75 +39 +39 очень
душно
1006.4 1005.8
18 10.02 З 3 н/о н/о +27.8 +23.8 79 +38 +38 очень
душно
1006.4 1005.8
20 10.02 З 4 н/о 3/0
[]
+27.6 +24.0 81 +38 +38 очень
душно
1007.4 1006.8
21 10.02 З 4 н/о н/о +27.9 +24.3 81 +39 +39 очень
душно
1008.2 1007.6
23 10.02 ЮЗ 5 н/о н/о +31.0 +23.9 66 +43 +43 опасность
перегрева
1009.0 1008.4
00 11.02 З 5 н/о н/о +32.1 +22.2 56 +41 +41 опасность
перегрева
1008.6 1008.0
02 11.02 ЮЗ 5 н/о н/о +34.7 +21.0 45 +42 +42 опасность
перегрева
1007.0 1006.4 +26.5
03 11.02 З 5 н/о н/о +35.3 +20.8 43 +42 +42 опасность
перегрева
1006.0 1005.4
05 11.02 З 3 н/о 5/0 2000 м
[]
+36.7 +21.7 42 +45 +53 опасность
перегрева
1004.1 1003.5
06 11.02 З 3 н/о н/о +35.9 +20.2 40 +42 +42 опасность
перегрева
1004.0 1003.4
08 11.02 З 5 н/о н/о +34.4 +20.0 43 +40 +40 очень
душно
1004.4 1003.8
09 11.02 ЮЗ 2 н/о н/о +32.2 +20.8 51 +39 +39 очень
душно
1005.3 1004.7
11 11.02 штиль 0 н/о н/о +26.6 +22.9 80 +35 +35 очень
душно
1006.7 1006.1
12 11.02 штиль 0 н/о н/о +26.4 +23.1 82 +35 +35 очень
душно
1007.5 1006.9
14 11.02 штиль 0 н/о н/о +25.1 +23.2 89 +34 +34 очень
душно
1008.1 1007.5 +37.1
15 11.02 штиль 0 н/о н/о +24.8 +23.0 90 +33 +33 очень
душно
1007.5 1006.9
17 11.02 штиль 0 н/о н/о +24.9 +22.8 88 +33 +33 очень
душно
1006.7 1006.1
18 11.02 СЗ 2 н/о н/о +25.4 +22.5 84 +33 +33 очень
душно
1006.7 1006.1
20 11.02 штиль 0 н/о н/о +24.2 +23.0 93 +32 +32 очень
душно
1007.8 1007.2
21 11.02 З 2 н/о н/о +26.5 +23.2 82 +36 +36 очень
душно
1008.5 1007.9
23 11.02 З 5 н/о н/о +29.5 +23.7 71 +40 +40 очень
душно
1009.6 1009.0
00 12.02 З 4 н/о н/о +31.0 +22.9 62 +41 +41 опасность
перегрева
1009.4 1008.8
02 12.02 З 6 н/о н/о +33.2 +18.6 42 +38 +38 очень
душно
1007.7 1007.1 +24.2
03 12.02 З 6 н/о н/о +34.2 +16.5 35 +37 +37 очень
душно
1006.8 1006.2
05 12.02 ЮЗ 4 н/о н/о +35.4 +13.5 27 +36 +36 очень
жарко
1005.2 1004.6
06 12.02 ЮЗ 4 н/о н/о +35.8 +12.1 24 +36 +36 очень
жарко
1005.0 1004.4
08 12.02 ЮЗ 3 н/о н/о +34.6 +14.0 29 +36 +36 душно 1005.3 1004.7
09 12.02 Ю 2 н/о н/о +30.1 +22.0 62 +39 +39 очень
душно
1005.9 1005.3
11 12.02 штиль 0 н/о н/о +25.9 +23.0 84 +35 +35 очень
душно
1007.4 1006.8
12 12.02 штиль 0 н/о н/о +25.2 +23.1 88 +34 +34 очень
душно
1008.0 1007.4
14 12.02 штиль 0 н/о н/о +23.5 +21.8 90 +30 +30 очень
душно
1007.9 1007.3 +36.1
15 12.02 штиль 0 н/о н/о +23.2 +22.0 93 +32 +32 очень
душно
1007.2 1006.6
17 12.02 штиль 0 н/о н/о +22.8 +21.8 94 +31 +31 очень
душно
1007.0 1006.4
18 12.02 СЗ 2 н/о н/о +24.2 +22.5 90 +32 +32 очень
душно
1007.2 1006.6
20 12.02 СЗ 5 н/о н/о +26.5 +23.0 81 +35 +35 очень
душно
1008.2 1007.6
21 12.02 СЗ 4 н/о н/о +26.7 +23.2 81 +36 +36 очень
душно
1009.2 1008.6
23 12.02 З 4 н/о 9/0
[]
+28.7 +23.6 74 +39 +43 очень
душно
1009.9 1009.3
00 13.02 ЮЗ 6 н/о н/о +30.8 +23.5 65 +42 +42 опасность
перегрева
1009.8 1009.2
02 13.02 ЮЗ 4 н/о н/о +33.4 +23.7 57 +45 +45 опасность
перегрева
1008.3 1007.7 +22.7
03 13.02 ЮЗ 3 н/о н/о +34.4 +23.4 53 +45 +45 опасность
перегрева
1007.0 1006.4
05 13.02 З 2 н/о 3/0 2000 м
[]
+35.4 +21.6 45 +43 +55 опасность
перегрева
1005.5 1004.9
06 13.02 ЮЗ 3 н/о н/о +35.6 +20.7 42 +42 +42 опасность
перегрева
1005.1 1004.5
08 13.02 В 4 н/о н/о +31.9 +21.7 55 +40 +40 очень
душно
1005.6 1005.0
09 13.02 В 1 н/о н/о +29.2 +23.9 73 +40 +40 очень
душно
1006.2 1005.6
11 13.02 штиль 0 н/о н/о +26.6 +23.9 85 +37 +37 очень
душно
1007.7 1007.1
12 13.02 штиль 0 н/о н/о +26.4 +23.9 86 +36 +36 очень
душно
1008.2 1007.6
14 13.02 штиль 0 н/о н/о +25.7 +23.9 90 +35 +35 очень
душно
1008.0 1007.4 +36.3
15 13.02 штиль 0 н/о н/о +25.3 +23.4 89 +34 +34 очень
душно
1007.7 1007.1
17 13.02 З 2 н/о н/о +25.8 +23.3 86 +35 +35 очень
душно
1006.8 1006.2
18 13.02 З 3 н/о н/о +26.2 +23.5 85 +36 +36 очень
душно
1006.9 1006.3
20 13.02 З 2 н/о н/о +26.0 +23.9 88 +36 +36 очень
душно
1008.0 1007.4
21 13.02 СЗ 4 н/о н/о +26.7 +24.5 88 +38 +38 очень
душно
1008.7 1008.1
23 13.02 СЗ 4 н/о н/о +29.9 +25.4 77 +44 +44 опасность
перегрева
1009.2 1008.6
00 14.02 З 4 н/о н/о +31.8 +25.2 68 +46 +46 опасность
перегрева
1009.0 1008.4
02 14.02 З 3 н/о н/о +35.3 +24.6 54 +48 +48 опасность
перегрева
1007.9 1007.3 +25.3
03 14.02 З 3 н/о н/о +35.6 +23.6 50 +46 +46 опасность
перегрева
1006.9 1006.3
05 14.02 ЮВ 3 н/о 1/0
[]
+37.4 +16.9 30 +40 +50 очень
душно
1005.3 1004.7
06 14.02 В 5 н/о н/о +35.0 +22.7 49 +45 +45 опасность
перегрева
1005.2 1004.6
08 14.02 штиль 0 н/о н/о +30.4 +22.3 62 +39 +39 очень
душно
1006.2 1005.6
09 14.02 З 2 н/о н/о +28.2 +21.0 65 +35 +35 очень
душно
1007.3 1006.7
11 14.02 штиль 0 н/о 10/0
[]
+26.2 +23.5 85 +36 +36 очень
душно
1008.9 1008.3
12 14.02 З 2 н/о н/о +26.1 +22.6 81 +34 +34 очень
душно
1009.7 1009.1
14 14.02 З 2 9000 м н/о +24.7 +22.4 87 +32 +32 очень
душно
1009.2 1008.6 +38.1
15 14.02 ЮЗ 1 н/о н/о +24.4 +22.3 88 +32 +32 очень
душно
1009.3 1008.7
17 14.02 З 1 н/о н/о +23.3 +21.6 90 +31 +31 очень
душно
1008.7 1008.1
18 14.02 штиль 0 н/о н/о +23.4 +22.0 92 +32 +32 очень
душно
1008.9 1008.3
20 14.02 штиль 0 н/о н/о +23.1 +22.1 94 +31 +31 очень
душно
1010.2 1009.6
21 14.02 З 2 н/о н/о +23.9 +22.5 92 +31 +31 очень
душно
1011.0 1010.4
23 14.02 штиль 0 н/о н/о +27.7 +24.5 83 +39 +39 очень
душно
1011.8 1011.2
00 15.02 ЮВ 6 н/о н/о +31.2 +25.1 70 +45 +45 опасность
перегрева
1011.7 1011.1
02 15.02 В 8 н/о 10/10 600 м
[]
+31.2 +25.5 72 +46 +46 опасность
перегрева
1011.3 1010.7 +22.8
03 15.02 ЮВ 7 н/о н/о +31.2 +25.8 73 +46 +46 опасность
перегрева
1010.7 1010.1
05 15.02 ЮВ 6 н/о н/о +30.7 +24.6 70 +43 +43 опасность
перегрева
1009.6 1009.0
06 15.02 В 7 н/о н/о +29.7 +25.0 76 +43 +43 опасность
перегрева
1009.5 1008.9
08 15.02 В 5 н/о н/о +29.0 +24.1 75 +40 +40 очень
душно
1010.2 1009.6
09 15.02 В 4 н/о н/о +28.1 +24.3 80 +39 +39 очень
душно
1010.8 1010.2
11 15.02 В 5 н/о 10/10 600 м
[]
+28.2 +24.4 80 +40 +40 очень
душно
1012.0 1011.4
12 15.02 ЮВ 5 н/о н/о +28.2 +24.0 78 +39 +39 очень
душно
1012.9 1012.3
14 15.02 В 5 н/о 4/4 600 м
[]
+27.9 +23.5 77 +38 +38 очень
душно
1012.3 1011.7 +32.2
15 15.02 ЮВ 3 н/о н/о +27.4 +23.4 79 +37 +37 очень
душно
1012.0 1011.4
17 15.02 В 4 н/о 10/10 600 м
[]
+27.6 +23.4 78 +37 +37 очень
душно
1011.2 1010.6
18 15.02 В 4 н/о н/о +27.2 +23.0 78 +36 +36 очень
душно
1011.3 1010.7

 

Местоположение метеостанции Куктаун (Квинсленд, Австралия): широта -15.45 долгота 145.18 высота над уровнем моря 6 м.

В архиве по умолчанию представлена погода в Куктауне за последнюю неделю. Архивные данные за месяц целиком и за предыдущие месяцы, начиная с января 2011 года, Вы можете получить, выбрав интересующий диапазон дат из раскрывающегося списка и нажав кнопку "Ввод!".


*Определитесь, кто Вы:
робот инопланетянин человек

Внимание! Время в таблицах - всемирное. Для получения местного времени необходимо прибавить поправку, которая равна 10 ч.

Смотрите также архив погоды в соседних городах и на ближайших метеорологических станциях:

Погода на Мысе Флэттери (Квинсленд, Австралия) (55 км)
Погода на Острове Лоу (Квинсленд, Австралия) (112 км)
Погода в Палмервилле (Квинсленд, Австралия) (134 км)
Погода в Кэрнсе (Квинсленд, Австралия) (170 км)
Погода на Арлингтон рифе (Квинсленд, Австралия) (173 км)
Погода в Марибе (Квинсленд, Австралия) (182 км)
Погода на Бугенвильском рифе (Квинсленд, Австралия) (207 км)
Погода в Юг Джонстон (Квинсленд, Австралия) (255 км)
Погода в Аэропорту Коэн (Квинсленд, Австралия) (290 км)
Погода на Холмс Рифе (Квинсленд, Австралия) (308 км)

Пояснения к столбцам:

Ветер - указаны скорость ветра в м/с - средняя за 10 мин, порывы в срок и между сроками (в фигурных скобках) и направление, откуда дует ветер: С - северный, СВ - северо-восточный, В - восточный, ЮВ - юго-восточный, Ю - южный, ЮЗ - юго-западный, З - западный, СЗ - северо-западный.
Видимость - горизонтальная дальность видимости в метрах или километрах. При видимости от 1 до 10 км при отсутствии осадков обычно наблюдается дымка, при ухудшении видимости до 1 км и менее - туман. В сухую погоду видимость может ухудшаться дымом, пылью или мглою.
Явления - указаны атмосферные явления, наблюдавшиеся в срок или в последний час перед сроком; фигурными скобками обозначены явления, наблюдавшиеся между сроками (за 1-3 часа до срока); квадратными скобками обозначены град или гололедные отложения с указанием их диаметра в мм.
Облачность - указаны через наклонную черту общая и нижняя облачность в баллах и высота нижней границы облаков в метрах; квадратными скобками обозначены формы облаков: Ci - перистые, Cs - перисто-слоистые, Cc - перисто-кучевые, Ac - высококучевые, As - высокослоистые, Sc - слоисто-кучевые, Ns - слоисто-дождевые, Cu - кучевые, Cb - кучево-дождевые. Подробнее классификацию облаков см. в Атласе облаков (PDF).
T - Температура воздуха - температура, измеренная на высоте 2 м над землей.
Td - Температура точки росы - температура, при понижении до которой содержащийся в воздухе водяной пар достигнет насыщения.
f - Относительная влажность воздуха - влажноcть воздуха, измеренная на высоте 2 м над землей.
Te - Эффективная температура - температура, которую ощущает одетый по сезону человек в тени. Характеристика душности погоды. При расчете учитывается влияние влажности воздуха и скорости ветра на теплоощущения человека.
Tes - Эффективная температура на солнце - температура, которую ощущает человек, с поправкой на солнечный нагрев. Характеристика знойности погоды. Зависит от высоты солнца над горизонтом, облачности и скорости ветра. Ночью, в пасмурную погоду, а также при ветре 12 м/с и более поправка равна нулю.
P - Атмосферное давление - приведенное к уровню моря атмосферное давление.
Po - Атмосферное давление - измеренное на уровне метеостанции атмосферное давление.
Tmin - Минимальная температура - минимум температуры воздуха на высоте 2 м над землей.
Tmax - Максимальная температура - максимум температуры воздуха на высоте 2 м над землей.
R - Количество осадков - Количество выпавших осадков за период времени, мм. При наведении курсора мыши на число - период времени, за который выпало указанное количество осадков.
R24 - Количество осадков - Количество выпавших осадков за 24 часа, мм.
S - Снежный покров - Высота снежного покрова, см. При наведении курсора мыши на число - состояние снежного покрова и степень покрытия местности в баллах.